Location: Newark
(5.8900°S, 42.6378°W)
Time: 03:34:28
(UTC+00:00)

X-37B - Pass Details

Date: 22 September 2020
Orbit: 382 x 392 km, 45.0° (Epoch: 15 October)

Event Time Altitude Azimuth Distance (km) Brightness Sun altitude
Rises 22:09:24 0° 209° (SSW) 2,270 4.9 -21.5°
Reaches altitude 10° 22:11:38 10° 197° (SSW) 1,410 3.6 -22.0°
Enters shadow 22:12:14 14° 191° (SSW) 1,195 3.2 -22.2°
